Wind_Speed
17 18 20 22 23 26 28 30 32 34 38 41 42 43 42 41 41 41 41 40 39 39 38 39 38 37 36 36 35 35 35 36 37 38 38 38 39 39 39 38 37 36 34 31
20 22 21 21 22 22 24 25 26 28 31 34 35 35 36 36 37 37 38 38 38 37 38 38 38 36 37 37 36 35 37 38 38 38 39 41 42 42 42 41 40 39 36 33
23 23 23 23 24 24 26 26 26 27 27 29 30 30 32 33 33 33 34 34 35 35 36 38 38 38 38 37 37 38 39 39 40 41 42 43 43 43 43 42 41 40 38 35
23 24 24 25 26 26 27 28 29 28 28 29 30 32 31 32 33 33 33 34 36 37 38 39 40 39 39 39 39 41 41 42 41 41 42 43 43 43 42 41 38 38 35 33
21 23 24 25 26 27 28 29 30 30 30 30 31 33 34 33 35 36 37 37 39 40 42 42 43 44 44 44 45 45 45 44 44 43 43 42 42 41 39 36 34 33 31 29
17 19 21 22 23 24 26 27 28 28 29 30 29 32 34 33 36 39 41 42 43 45 46 47 48 49 50 51 51 50 49 48 47 46 44 43 41 39 36 34 32 31 30 29
11 13 15 16 17 19 21 22 23 24 24 24 25 28 29 29 32 37 41 45 48 50 52 53 54 55 56 56 56 56 55 53 51 50 49 46 42 39 36 33 31 30 30 30
11 12 13 14 15 16 18 19 21 23 21 20 20 22 21 23 26 30 35 40 45 49 53 56 58 59 60 60 60 58 57 55 54 52 49 46 43 40 38 36 34 33 33 34
11 12 13 14 15 16 17 18 19 21 21 20 18 18 19 22 26 28 31 34 38 43 47 51 54 57 58 59 58 57 56 55 54 52 49 45 43 41 41 38 37 36 36 37
9 9 11 12 14 15 17 17 18 20 22 22 19 18 20 22 25 27 30 33 36 39 43 46 50 54 56 57 57 56 55 54 52 51 48 45 42 42 43 40 39 39 39 39
10 10 11 14 15 17 18 18 19 21 22 25 24 20 23 25 26 28 31 34 37 39 41 44 47 49 50 51 51 51 50 48 47 45 44 42 40 40 41 40 39 39 39 39
12 13 14 15 17 19 20 20 21 22 23 25 27 24 26 27 29 31 33 35 37 39 40 42 43 44 44 43 43 43 43 42 41 41 40 39 37 36 37 38 37 38 38 36
16 17 18 18 19 21 22 22 24 25 26 26 28 27 28 30 30 32 34 36 36 37 37 38 38 37 35 34 34 35 34 34 34 35 35 35 35 34 33 33 34 34 34 33
22 22 22 23 23 25 25 26 27 28 28 29 28 28 28 30 31 32 33 35 35 35 35 34 32 29 27 26 27 28 29 30 31 32 33 33 31 30 30 31 31 30 30 30
25 25 25 25 26 29 29 28 30 31 30 31 29 30 29 30 31 31 32 32 33 33 32 30 26 23 22 22 21 21 24 26 27 28 29 29 28 28 29 29 28 28 28 28
25 27 27 27 28 31 30 28 31 33 32 32 31 29 30 30 30 29 29 30 30 30 28 26 23 21 20 19 19 19 20 22 23 24 24 25 26 26 27 27 27 27 28 28
23 25 27 27 27 31 30 28 31 33 32 32 30 29 29 29 29 28 28 28 27 26 25 24 22 21 20 19 19 19 20 21 23 23 23 24 24 25 26 26 27 27 27 28
23 25 27 27 27 29 27 27 29 31 30 30 30 29 30 29 28 28 27 26 25 24 23 22 22 21 19 18 18 18 19 20 21 22 22 23 23 24 24 25 25 25 26 26
23 25 26 27 27 26 23 26 30 31 28 27 29 29 30 29 29 28 27 25 24 22 21 20 20 19 18 17 17 17 18 18 18 19 20 21 22 22 22 22 22 22 23 23
24 25 26 27 28 27 24 26 28 30 26 26 29 29 30 30 29 28 26 24 22 21 19 18 18 17 16 15 15 15 15 15 16 16 17 18 19 20 20 19 18 18 18 18
25 26 27 28 29 27 27 29 28 28 27 27 28 28 29 30 30 28 26 23 21 19 18 17 16 15 14 13 13 13 12 12 12 13 13 14 15 15 16 16 15 15 15 15
27 28 28 29 29 28 29 30 29 28 28 28 28 28 29 28 28 27 25 22 20 19 17 15 14 14 13 12 11 11 10 10 10 10 10 11 11 11 12 13 13 13 13 13
28 30 31 30 29 29 30 31 30 29 28 28 29 29 29 29 28 27 25 22 20 19 17 16 14 13 12 11 10 9 9 8 8 8 8 9 9 10 11 11 11 12 12 12
29 32 33 31 30 31 32 32 31 31 30 29 29 29 29 29 29 28 26 23 21 20 18 17 16 14 12 11 10 9 9 8 7 7 8 9 9 9 10 10 11 11 12 12
34 37 35 32 31 32 32 32 33 32 31 30 29 28 28 28 27 27 26 25 23 21 20 19 17 16 14 13 12 11 10 9 9 9 9 9 10 10 10 11 11 12 12 12
37 38 38 36 35 34 33 33 34 33 31 30 29 28 27 27 27 27 27 27 26 24 23 21 20 19 17 16 15 13 12 11 11 10 11 11 11 11 12 12 13 13 13 13
Wind_Direction
235 238 239 241 242 244 245 244 243 243 245 248 250 253 256 258 259 260 261 261 261 261 260 260 260 260 261 263 264 266 267 270 271 270 269 266 266 266 266 267 269 270 272 275
244 245 248 250 252 254 256 255 253 251 252 254 254 256 258 259 259 260 260 260 258 258 258 259 260 260 260 261 263 266 268 270 272 271 270 268 266 265 263 266 267 266 268 271
250 253 255 256 257 258 260 260 260 258 257 259 261 260 261 263 262 260 259 259 259 260 260 262 263 261 262 263 263 266 268 271 273 272 271 272 269 263 263 263 261 262 265 267
252 256 258 259 261 262 263 264 265 266 264 263 264 263 260 262 264 263 262 261 261 261 262 263 264 266 267 265 267 270 273 274 274 272 270 268 267 264 262 263 263 263 265 267
252 255 258 259 261 263 265 267 268 270 269 267 264 264 262 259 260 262 263 263 263 263 264 265 266 268 270 271 273 275 277 276 275 274 272 269 265 262 262 263 264 266 270 271
250 253 256 259 262 264 267 269 270 272 272 271 269 267 265 262 259 259 261 264 265 266 267 267 267 269 271 273 274 276 277 278 276 276 277 275 270 266 265 264 264 268 269 272
257 257 260 263 264 267 270 272 275 275 275 278 277 274 274 272 266 263 262 263 266 267 268 269 269 270 271 271 273 274 275 275 274 276 279 280 274 269 266 264 264 268 271 274
279 276 275 274 274 275 278 280 282 284 284 283 282 284 287 283 276 272 270 270 270 270 271 271 271 272 272 272 273 273 273 273 274 274 274 275 271 265 264 264 264 266 269 271
286 285 285 283 284 285 286 286 288 290 291 292 291 292 291 287 284 283 282 281 279 277 276 276 275 274 273 272 272 272 271 271 271 272 271 272 269 265 263 262 263 264 267 270
292 288 287 289 290 292 293 295 294 293 295 297 298 301 299 294 295 297 298 296 294 290 286 283 281 277 275 273 272 271 271 270 270 268 267 268 267 265 263 260 261 263 265 268
290 290 288 289 291 293 294 296 295 295 297 299 301 305 302 302 305 307 307 307 305 302 298 293 288 284 280 276 273 271 269 267 266 266 264 263 264 263 261 259 260 262 266 268
291 290 289 289 290 291 292 292 293 294 296 298 301 306 303 306 309 311 312 313 313 309 305 299 293 289 285 279 273 269 266 264 262 262 259 259 260 260 258 257 258 260 263 265
295 293 292 290 290 289 289 289 289 290 291 293 297 303 303 305 309 313 315 317 317 315 312 306 299 293 287 280 271 264 260 255 254 254 253 253 255 255 254 255 257 259 261 263
295 294 294 293 292 291 290 290 289 288 289 291 295 298 299 302 307 312 316 319 320 319 317 314 307 298 286 277 270 261 256 251 250 250 250 250 250 251 252 253 255 257 260 263
296 295 293 291 290 288 287 289 288 286 287 289 291 294 296 298 303 310 315 319 321 321 320 317 312 302 291 282 272 259 255 250 248 247 247 247 249 251 253 255 256 258 260 262
301 300 297 294 291 290 290 289 285 284 284 285 287 291 292 296 301 308 315 319 322 322 321 318 314 306 297 289 280 270 261 253 250 249 250 251 252 254 255 256 257 259 261 263
309 306 304 302 298 296 298 294 288 285 284 284 284 286 288 292 297 304 312 318 321 322 320 318 316 309 303 295 285 277 270 262 257 256 255 255 256 256 256 258 259 261 263 266
314 311 310 309 305 303 309 300 294 290 288 285 282 282 284 288 294 299 306 313 318 320 320 318 315 312 305 300 294 287 279 269 264 261 259 258 258 259 261 262 262 262 264 267
318 316 315 315 313 316 317 304 297 294 291 285 281 280 282 284 288 293 299 306 313 316 318 318 316 314 310 305 299 293 287 278 271 265 261 259 260 261 264 264 264 265 266 269
322 321 319 319 317 321 322 308 303 299 296 286 280 279 281 283 284 287 291 297 306 313 316 318 317 315 314 310 305 300 291 281 274 270 264 262 263 263 263 263 264 265 266 268
321 321 320 319 318 323 317 312 309 303 299 291 286 282 281 282 282 283 283 288 297 306 312 316 317 317 317 315 312 307 298 286 279 275 271 266 263 260 259 261 263 264 265 268
319 318 318 319 320 321 315 314 311 306 300 295 291 285 283 283 281 279 278 280 287 295 302 310 315 317 318 317 314 311 306 296 285 278 273 268 265 261 259 260 261 261 264 269
315 313 314 318 320 316 314 313 312 308 303 298 295 289 284 282 280 278 275 274 278 284 290 297 304 310 314 315 314 312 309 302 293 283 276 272 270 267 263 260 260 262 266 269
309 306 311 315 315 310 310 312 310 309 306 301 297 293 286 283 280 276 272 270 271 274 278 284 290 296 300 305 306 307 308 306 299 290 284 279 273 269 265 263 264 266 268 270
306 311 314 314 308 305 307 306 306 306 305 303 299 295 288 283 278 275 271 268 269 269 270 273 278 282 285 288 291 293 294 295 293 288 284 280 273 269 267 266 268 269 271 273
306 311 312 311 307 304 303 300 300 301 301 300 298 295 290 284 277 271 269 269 268 267 266 266 269 272 274 275 277 279 281 282 283 282 281 279 276 274 272 272 271 272 274 277
Height
5853 5855 5855 5856 5858 5859 5860 5862 5864 5866 5866 5867 5868 5869 5869 5871 5871 5872 5873 5874 5875 5875 5875 5874 5874 5874 5875 5875 5875 5874 5874 5873 5872 5871 5871 5870 5869 5868 5868 5867 5867 5867 5867 5867
5850 5850 5852 5853 5854 5855 5856 5857 5859 5860 5860 5861 5862 5862 5862 5863 5864 5864 5864 5865 5865 5866 5866 5864 5864 5864 5865 5864 5865 5865 5864 5862 5862 5862 5861 5860 5859 5858 5858 5857 5857 5856 5857 5857
5845 5847 5847 5849 5849 5850 5851 5852 5853 5854 5855 5855 5855 5856 5856 5855 5856 5856 5856 5856 5857 5857 5857 5857 5855 5853 5854 5854 5855 5854 5853 5852 5852 5852 5851 5850 5848 5848 5848 5847 5846 5846 5847 5847
5841 5842 5843 5844 5844 5845 5846 5846 5846 5847 5848 5849 5849 5848 5850 5848 5848 5848 5848 5849 5849 5849 5849 5849 5847 5844 5844 5844 5843 5843 5843 5843 5842 5841 5840 5840 5839 5837 5837 5836 5835 5836 5837 5837
5837 5838 5838 5839 5840 5840 5840 5840 5840 5840 5841 5841 5841 5840 5842 5842 5841 5840 5840 5840 5840 5840 5840 5840 5839 5837 5836 5836 5835 5835 5834 5833 5832 5831 5830 5829 5828 5826 5826 5826 5826 5827 5828 5828
5834 5834 5834 5835 5835 5835 5835 5835 5835 5834 5834 5834 5834 5833 5833 5833 5833 5832 5831 5830 5830 5830 5829 5829 5829 5828 5827 5826 5825 5824 5823 5822 5821 5820 5819 5819 5817 5816 5816 5817 5818 5818 5820 5821
5832 5831 5831 5832 5831 5831 5831 5831 5830 5829 5829 5828 5827 5826 5826 5826 5825 5824 5823 5822 5820 5819 5818 5817 5816 5816 5815 5814 5814 5813 5812 5812 5811 5810 5809 5808 5807 5808 5808 5809 5810 5810 5811 5812
5830 5830 5830 5829 5829 5828 5828 5827 5826 5825 5824 5823 5822 5820 5821 5819 5817 5816 5814 5813 5811 5809 5807 5805 5804 5802 5801 5801 5800 5800 5799 5799 5799 5799 5799 5798 5797 5798 5799 5800 5801 5802 5803 5804
5828 5828 5827 5826 5826 5825 5824 5823 5822 5821 5819 5818 5818 5817 5816 5813 5810 5808 5807 5804 5802 5799 5796 5793 5791 5788 5786 5785 5785 5785 5785 5785 5786 5786 5787 5787 5787 5788 5789 5790 5791 5792 5793 5795
5826 5826 5825 5823 5823 5822 5821 5820 5818 5816 5814 5812 5813 5812 5810 5806 5804 5802 5799 5795 5792 5788 5784 5780 5777 5773 5771 5770 5770 5770 5771 5771 5771 5772 5773 5774 5775 5776 5777 5779 5780 5782 5784 5785
5823 5823 5822 5820 5819 5817 5817 5815 5813 5811 5809 5806 5805 5808 5803 5799 5796 5794 5790 5786 5781 5776 5771 5766 5762 5758 5755 5754 5754 5755 5755 5757 5758 5758 5759 5761 5762 5764 5766 5767 5770 5772 5773 5774
5819 5819 5817 5816 5815 5813 5811 5810 5808 5807 5804 5800 5797 5801 5795 5792 5788 5785 5781 5776 5771 5765 5759 5753 5748 5744 5741 5740 5740 5741 5742 5744 5745 5746 5748 5750 5751 5753 5755 5757 5759 5761 5763 5764
5815 5814 5813 5812 5811 5808 5806 5804 5802 5800 5798 5795 5792 5794 5787 5783 5780 5777 5772 5767 5761 5755 5749 5742 5737 5732 5730 5728 5728 5729 5731 5733 5734 5736 5738 5740 5742 5744 5746 5748 5750 5752 5753 5755
5810 5809 5808 5806 5803 5801 5799 5797 5794 5792 5790 5787 5786 5783 5781 5776 5773 5770 5765 5759 5753 5747 5741 5734 5729 5724 5721 5720 5719 5720 5722 5723 5725 5727 5729 5731 5733 5735 5737 5739 5741 5743 5745 5746
5804 5803 5801 5799 5797 5793 5792 5791 5787 5784 5782 5780 5778 5775 5773 5769 5766 5763 5758 5753 5747 5741 5735 5729 5724 5720 5717 5715 5713 5713 5715 5716 5717 5719 5721 5722 5725 5727 5729 5731 5733 5735 5737 5738
5798 5796 5794 5792 5790 5785 5784 5783 5779 5776 5773 5771 5769 5768 5764 5762 5759 5756 5752 5747 5742 5736 5731 5726 5721 5717 5714 5712 5710 5709 5709 5710 5711 5712 5714 5716 5718 5720 5722 5724 5726 5727 5729 5730
5793 5790 5787 5784 5782 5777 5776 5775 5770 5767 5765 5763 5761 5760 5757 5754 5751 5749 5746 5742 5737 5732 5727 5723 5718 5715 5711 5709 5707 5706 5705 5705 5706 5707 5709 5710 5712 5714 5715 5717 5718 5720 5721 5722
5788 5784 5780 5777 5775 5771 5773 5766 5762 5758 5757 5754 5752 5751 5749 5747 5745 5742 5739 5736 5732 5728 5724 5720 5716 5712 5709 5706 5704 5702 5701 5701 5701 5702 5704 5705 5706 5708 5709 5711 5712 5713 5714 5715
5784 5780 5776 5772 5768 5765 5765 5759 5754 5750 5749 5747 5744 5743 5741 5739 5737 5735 5733 5731 5728 5724 5720 5716 5713 5709 5706 5703 5701 5699 5698 5697 5698 5698 5699 5700 5701 5703 5704 5705 5706 5707 5708 5708
5780 5776 5772 5767 5762 5759 5760 5753 5747 5744 5743 5741 5737 5735 5734 5732 5731 5729 5727 5725 5722 5719 5716 5713 5709 5706 5703 5700 5698 5696 5695 5694 5694 5694 5695 5696 5697 5698 5699 5699 5700 5701 5702 5703
5775 5771 5767 5762 5756 5754 5752 5746 5742 5739 5737 5733 5730 5728 5726 5725 5723 5722 5720 5719 5717 5715 5712 5709 5706 5703 5700 5697 5695 5693 5692 5691 5691 5691 5691 5692 5693 5693 5694 5695 5696 5697 5698 5698
5770 5766 5762 5757 5752 5750 5744 5739 5736 5732 5728 5725 5722 5720 5719 5717 5715 5714 5713 5712 5711 5710 5708 5705 5703 5700 5697 5695 5693 5691 5690 5689 5688 5688 5688 5689 5689 5690 5690 5691 5692 5693 5694 5695
5765 5760 5755 5752 5749 5743 5737 5732 5729 5724 5721 5717 5714 5712 5710 5709 5707 5706 5705 5705 5705 5704 5703 5701 5699 5697 5695 5693 5691 5689 5688 5687 5686 5686 5686 5686 5687 5687 5687 5688 5689 5690 5690 5691
5759 5753 5749 5745 5741 5736 5731 5726 5721 5717 5713 5710 5706 5704 5701 5700 5699 5698 5698 5698 5697 5697 5697 5696 5695 5693 5692 5690 5688 5687 5686 5685 5685 5684 5684 5684 5684 5684 5685 5685 5686 5687 5687 5687
5750 5745 5741 5738 5733 5728 5725 5719 5714 5710 5706 5702 5699 5696 5693 5692 5691 5690 5689 5689 5690 5690 5690 5690 5689 5688 5688 5687 5685 5684 5684 5683 5682 5682 5682 5682 5682 5682 5682 5683 5683 5683 5684 5684
5742 5738 5733 5729 5724 5720 5717 5711 5706 5702 5698 5695 5691 5688 5685 5683 5682 5682 5681 5681 5682 5682 5683 5683 5683 5683 5682 5682 5681 5681 5680 5680 5680 5679 5679 5679 5679 5679 5679 5679 5680 5680 5680 5680